| time (UTC) | temp C | wind direction | speed KPH | gust KPH | rain 1hr cm | rain 24hr cm | rain mn cm | humidity % | barometer mb |
| 20260902120005 | 27 | 359 | 1.6 | 8.0 | 0.00 | 0.00 | 0.00 | 100 | 1015.6 |
| 20260902114502 | 27 | 359 | 0.0 | 0.0 | 0.00 | 0.00 | 0.00 | 100 | 1015.7 |
| 20260902113003 | 27 | 142 | 0.0 | 0.0 | 0.00 | 0.00 | 0.00 | 100 | 1015.7 |
| 20260902111503 | 27 | 340 | 0.0 | 0.0 | 0.00 | 0.00 | 0.00 | 100 | 1015.6 |
| 20260902104505 | 27 | 339 | 3.2 | 8.0 | 0.00 | 0.00 | 0.00 | 100 | 1015.7 |
| 20260902103007 | 27 | 10 | 0.0 | 0.0 | 0.00 | 0.00 | 0.00 | 100 | 1015.6 |
| 20260902101508 | 27 | 343 | 0.0 | 3.2 | 0.00 | 0.00 | 0.00 | 100 | 1015.4 |
| 20260902100008 | 27 | 359 | 1.6 | 9.7 | 0.00 | 0.00 | 0.00 | 100 | 1015.1 |
| 20260902094504 | 27 | 336 | 3.2 | 8.0 | 0.00 | 0.00 | 0.00 | 100 | 1015.0 |
| 20260902093005 | 27 | 3 | 3.2 | 6.4 | 0.00 | 0.00 | 0.00 | 100 | 1014.9 |
| 20260902091506 | 28 | 359 | 3.2 | 12.9 | 0.00 | 0.00 | 0.00 | 100 | 1014.8 |
| 20260902090004 | 28 | 359 | 1.6 | 6.4 | 0.00 | 0.00 | 0.00 | 100 | 1014.9 |
| 20260902084533 | 28 | 359 | 0.0 | 1.6 | 0.00 | 0.00 | 0.00 | 100 | 1014.9 |
| 20260902083004 | 28 | 18 | 3.2 | 11.3 | 0.00 | 0.00 | 0.00 | 100 | 1015.0 |
| 20260902081506 | 28 | 359 | 1.6 | 4.8 | 0.00 | 0.00 | 0.00 | 100 | 1015.1 |
| 20260902080005 | 29 | 359 | 3.2 | 11.3 | 0.00 | 0.03 | 0.00 | 100 | 1015.0 |
| 20260902074508 | 29 | 340 | 1.6 | 4.8 | 0.00 | 0.03 | 0.00 | 100 | 1015.1 |
| 20260902071506 | 30 | 104 | 3.2 | 6.4 | 0.00 | 0.03 | 0.00 | 100 | 1014.9 |
| 20260902070006 | 30 | 359 | 3.2 | 9.7 | 0.00 | 0.03 | 0.00 | 100 | 1014.9 |
| 20260902064508 | 31 | 359 | 0.0 | 1.6 | 0.00 | 0.03 | 0.00 | 100 | 1014.6 |
| 20260902063004 | 31 | 359 | 0.0 | 0.0 | 0.00 | 0.03 | 0.00 | 96 | 1014.5 |
| 20260902061507 | 32 | 356 | 0.0 | 4.8 | 0.00 | 0.03 | 0.00 | 85 | 1014.6 |
| 20260902060003 | 32 | 359 | 3.2 | 8.0 | 0.00 | 0.03 | 0.00 | 78 | 1014.6 |
| 20260902051506 | 32 | 359 | 1.6 | 8.0 | 0.00 | 0.03 | 0.00 | 80 | 1014.8 |
| 20260902043005 | 32 | 336 | 0.0 | 0.0 | 0.00 | 0.03 | 0.00 | 80 | 1015.5 |
| 20260902041506 | 32 | 359 | 1.6 | 4.8 | 0.00 | 0.03 | 0.00 | 77 | 1015.5 |
| 20260902040008 | 32 | 342 | 1.6 | 8.0 | 0.00 | 0.03 | 0.00 | 82 | 1015.6 |
| 20260902034505 | 32 | 340 | 0.0 | 0.0 | 0.00 | 0.03 | 0.00 | 85 | 1015.8 |
| 20260902024505 | 31 | 359 | 0.0 | 0.0 | 0.00 | 0.05 | 0.00 | 90 | 1016.2 |
| 20260902023008 | 31 | 359 | 0.0 | 0.0 | 0.00 | 0.05 | 0.00 | 90 | 1016.2 |
| 20260902021506 | 30 | 31 | 3.2 | 6.4 | 0.00 | 0.15 | 0.00 | 89 | 1016.4 |
| 20260902014505 | 31 | 335 | 3.2 | 4.8 | 0.00 | 0.23 | 0.00 | 82 | 1016.5 |
| 20260902013002 | 30 | 359 | 0.0 | 0.0 | 0.00 | 0.23 | 0.00 | 85 | 1016.6 |
| 20260902010002 | 30 | 359 | 0.0 | 0.0 | 0.00 | 0.23 | 0.00 | 93 | 1016.7 |
| 20260902003005 | 30 | 359 | 0.0 | 0.0 | 0.00 | 0.23 | 0.00 | 97 | 1016.7 |
| 20260902001502 | 30 | 359 | 0.0 | 4.8 | 0.00 | 0.23 | 0.00 | 100 | 1016.6 |
| 20260902000004 | 29 | 347 | 0.0 | 0.0 | 0.00 | 0.23 | 0.00 | 100 | 1016.4 |
| 20260901234505 | 28 | 339 | 0.0 | 1.6 | 0.00 | 0.23 | 0.00 | 100 | 1016.3 |
| 20260901233002 | 28 | 330 | 0.0 | 0.0 | 0.00 | 0.23 | 0.00 | 100 | 1016.5 |
| 20260901230002 | 27 | 11 | 0.0 | 0.0 | 0.00 | 0.25 | 0.00 | 100 | 1016.5 |
| 20260901224505 | 27 | 11 | 0.0 | 0.0 | 0.00 | 0.25 | 0.00 | 100 | 1016.5 |
| 20260901223002 | 26 | 11 | 0.0 | 0.0 | 0.00 | 0.25 | 0.00 | 100 | 1016.6 |
| 20260901221506 | 26 | 11 | 0.0 | 0.0 | 0.00 | 0.25 | 0.00 | 100 | 1016.6 |
| 20260901220002 | 26 | 11 | 0.0 | 0.0 | 0.00 | 0.25 | 0.00 | 100 | 1016.7 |
| 20260901214506 | 26 | 11 | 0.0 | 0.0 | 0.00 | 0.25 | 0.00 | 100 | 1016.7 |
| 20260901213002 | 26 | 131 | 0.0 | 0.0 | 0.00 | 0.25 | 0.00 | 100 | 1016.7 |
| 20260901211506 | 26 | 131 | 0.0 | 0.0 | 0.00 | 0.25 | 0.00 | 100 | 1016.7 |
| 20260901210003 | 26 | 131 | 0.0 | 0.0 | 0.00 | 0.25 | 0.00 | 100 | 1016.9 |
| 20260901204506 | 26 | 131 | 0.0 | 0.0 | 0.00 | 0.25 | 0.00 | 100 | 1016.9 |
| 20260901201505 | 26 | 131 | 0.0 | 0.0 | 0.00 | 0.25 | 0.00 | 100 | 1017.0 |
| 20260901200008 | 26 | 131 | 0.0 | 0.0 | 0.00 | 0.25 | 0.00 | 100 | 1016.9 |
| 20260901194503 | 26 | 131 | 0.0 | 0.0 | 0.00 | 0.25 | 0.00 | 100 | 1016.9 |
| 20260901191502 | 26 | 131 | 0.0 | 0.0 | 0.00 | 0.25 | 0.00 | 100 | 1017.0 |
| 20260901190005 | 26 | 131 | 0.0 | 0.0 | 0.00 | 0.25 | 0.00 | 100 | 1016.9 |
| 20260901184507 | 26 | 131 | 0.0 | 0.0 | 0.00 | 0.25 | 0.00 | 100 | 1016.9 |
| 20260901181506 | 25 | 187 | 1.6 | 3.2 | 0.00 | 0.25 | 0.00 | 100 | 1017.0 |
| 20260901180003 | 26 | 120 | 3.2 | 4.8 | 0.00 | 0.25 | 0.00 | 100 | 1017.3 |
| 20260901174505 | 26 | 76 | 0.0 | 0.0 | 0.00 | 0.25 | 0.00 | 100 | 1017.4 |
| 20260901173007 | 25 | 79 | 3.2 | 4.8 | 0.00 | 0.25 | 0.00 | 100 | 1017.5 |
| 20260901171503 | 26 | 65 | 1.6 | 3.2 | 0.00 | 0.25 | 0.00 | 100 | 1017.4 |
| 20260901170006 | 26 | 63 | 1.6 | 3.2 | 0.00 | 0.25 | 0.00 | 100 | 1017.4 |
| 20260901164503 | 26 | 25 | 0.0 | 0.0 | 0.00 | 0.25 | 0.00 | 100 | 1017.4 |
| 20260901163007 | 26 | 63 | 1.6 | 3.2 | 0.00 | 0.25 | 0.00 | 100 | 1017.5 |
| 20260901161503 | 26 | 153 | 0.0 | 0.0 | 0.00 | 0.25 | 0.00 | 100 | 1017.6 |
| 20260901160006 | 26 | 101 | 1.6 | 3.2 | 0.00 | 0.25 | 0.00 | 100 | 1017.6 |
| 20260901154507 | 26 | 115 | 4.8 | 11.3 | 0.00 | 0.25 | 0.00 | 100 | 1017.8 |
| 20260901153003 | 26 | 165 | 4.8 | 9.7 | 0.00 | 0.25 | 0.00 | 100 | 1018.1 |
| 20260901151506 | 26 | 41 | 4.8 | 8.0 | 0.00 | 0.25 | 0.00 | 100 | 1018.3 |
| 20260901144503 | 26 | 132 | 1.6 | 3.2 | 0.00 | 0.25 | 0.25 | 100 | 1018.7 |
| 20260901143002 | 26 | 160 | 3.2 | 4.8 | 0.00 | 0.25 | 0.25 | 100 | 1018.8 |
| 20260901141502 | 26 | 70 | 3.2 | 4.8 | 0.00 | 0.25 | 0.25 | 100 | 1018.9 |
| 20260901140009 | 26 | 65 | 1.6 | 3.2 | 0.00 | 0.25 | 0.25 | 100 | 1018.8 |
| 20260901134503 | 26 | 49 | 4.8 | 6.4 | 0.00 | 0.25 | 0.25 | 100 | 1018.8 |
| 20260901133006 | 26 | 134 | 6.4 | 12.9 | 0.00 | 0.25 | 0.25 | 100 | 1018.7 |
| 20260901130009 | 26 | 160 | 4.8 | 11.3 | 0.00 | 0.25 | 0.25 | 100 | 1018.8 |
| 20260901124504 | 26 | 94 | 3.2 | 4.8 | 0.00 | 0.25 | 0.25 | 100 | 1018.8 |
| 20260901123003 | 26 | 93 | 0.0 | 0.0 | 0.00 | 0.28 | 0.25 | 100 | 1018.9 |